sat.trackr.live / text

‹ back to catalog

STARLINK-37479

NORAD 68861 · 2026-094Y

PAYLOAD ACTIVE UNKNOWN

§ Identity

Operator
Country
US
Launch date
2026-04-26
Launch site
AFWTR
Launch vehicle
Mass (kg)
RCS (m²)

Purposes: comms

External: N2YO · Heavens-Above · Gunter

§ Orbital elements

Epoch: 2026-05-25T04:00:03.998880Z

Period
92.95 min
Inclination
97.2848°
Eccentricity
0.0000964
Mean motion
15.49189472 rev/d
Perigee alt
418.4 km
Apogee alt
419.8 km
Semi-major
6,797.2 km
B*
-4.3845e-4
RAAN
159.9468°
Arg perigee
61.6564°
Mean anomaly
209.8863°
Rev number
567

§ Raw data

STARLINK-374791 68861U 26094Y   26145.16671295 -.00023864  00000+0 -43845-3 0  99962 68861  97.2848 159.9468 0000964  61.6564 209.8863 15.49189472  5672

JSON: /api/v1/satellites/68861 · /tle

For live sub-satellite position, see the globe view (requires WebGL).

§ Visibility from observer

Set your observer location to see the next 7 days of passes ≥ 10°. The values pass through the URL so the page stays shareable.

No JS? Fill the form by hand. The geolocation button needs JavaScript.